Location: St. Louis
(38.6270°N, 90.1994°W)
Time: 20:52:06
(UTC-05:00)

ISS - Pass Details

Date: 06 August 2017
Orbit: 402 x 407 km, 51.6° (Epoch: 28 May)

Event Time Altitude Azimuth Distance (km) Brightness Sun altitude
Rises 21:30:04 0° 317° (NW) 2,321 1.8 -15.2°
Reaches altitude 10° 21:32:27 10° 332° (NNW) 1,458 0.0 -15.6°
Maximum altitude 21:35:07 23° 27° (NNE) 914 -2.0 -16.0°
Enters shadow 21:36:25 18° 62° (ENE) 1,066 -2.0 -16.2°
